PDD Test Mass

unknown
NORAD ID: 20564 Int'l Des: 1990-031 Owner: AFSSD2 Country: US
LEOCIRCULARPOLAR

PDD Test Massについて

説明を読み込み中...

リアルタイム位置

3D地球を読み込み中...

次回通過

高度履歴

Altitude vs Time

uPlot chart will show altitude changes over time

軌道要素

1 20564U 90031E 26063.47881332 .00002578 00000-0 27263-3 0 9998
2 20564 89.8422 265.9377 0049935 279.8268 79.7324 14.88038563356500
Epoch: Mar 4, 2026 • Age: 24 hours

現在のステータス

高度 605.6 km
速度 7.56 km/s
衛星直下点 -16.49°S, 71.87°W
打ち上げ日 Apr 11, 1990
運用期間 35.8 years
タイプ other

技術仕様

分類 Payload
質量 0.00 kg
乾燥質量 0.00 kg
総質量 0.00 kg
長さ 0.00 m
直径 0.00 m
スパン 0.00 m
製造者 BALL
バスタイプ PDD mass
フェーズステータス In Orbit
所有者/国 AFSSD2/US

大規模コンステレーション

Loading constellations...